Bethel, AK

7:14 PM AKST on February 23, 2017 (GMT -0900)
Bethel

Weather History for PABE - October, 2013

Change the Weather History Date:

Tuesday, October 29, 2013

  Actual Average Record
Temperature  
Mean Temperature 36 °F 24 °F  
Max Temperature 38 °F 29 °F 51 °F (2002)
Min Temperature 34 °F 19 °F -3 °F (2001)
Degree Days  
Heating Degree Days 29 41  
Month to date heating degree days 748 992  
Since 1 July heating degree days 1943 2210  
Cooling Degree Days 0 0  
Month to date cooling degree days 0 0  
Year to date cooling degree days 18 4  
Moisture  
Dew Point 34 °F    
Average Humidity 0    
Maximum Humidity 0    
Minimum Humidity 0    
Precipitation  
Precipitation T in 0.05 in 0.48 in (1935)
Month to date precipitation 4.22 1.56  
Year to date precipitation 17.22 15.73  
Snow  
Snow 0.00 in 0.30 in 2.30 in (1970)
Month to date snowfall T 3.9  
Since 1 July snowfall T 4.5  
Since 1 September snowfall 0.0 4.5  
Snow Depth 0.00 in    
Sea Level Pressure  
Sea Level Pressure 29.45 in    
Wind  
Wind Speed 5 mph (East)    
Max Wind Speed 10 mph    
Max Gust Speed 13 mph    
Visibility 7 miles    
Events Fog    
T = Trace of Precipitation, MM = Missing Value Source: NWS Daily Summary

Daily Weather History Graph

Daily Weather History Graph

Search for Another Location

Airport or City:

Trip Planner

Search our weather history database for the weather conditions in past years. The results will help you decide how hot, cold, wet, or windy it might be!

Date:

Astronomy

Oct. 29, 2013 Rise Set
Actual Time 10:06 AM AKDT 6:54 PM AKDT
Civil Twilight 9:20 AM AKDT 7:40 PM AKDT
Nautical Twilight 8:30 AM AKDT 8:30 PM AKDT
Astronomical Twilight 7:40 AM AKDT 9:19 PM AKDT
Moon 3:53 AM AKDT (10/29) 5:20 PM AKDT (10/29)
Length of Visible Light 10h 19m
Length of Day
8h 48m
Waning Crescent, 24% of the Moon is Illuminated
Oct 29
Waning Crescent
Nov 3
New
Nov 9
First Quarter
Nov 17
Full
Nov 25
Last Quarter

Hourly Weather History & Observations

Time (AKDT) Temp. Windchill Dew Point Humidity Pressure Visibility Wind Dir Wind Speed Gust Speed Precip Events Conditions
12:53 AM 36.0 °F 32.1 °F 35.1 °F 97% 29.47 in 10.0 mi WSW 4.6 mph - N/A   Overcast
1:53 AM 36.0 °F 32.1 °F 35.1 °F 97% 29.49 in 10.0 mi SW 4.6 mph - N/A   Overcast
2:53 AM 36.0 °F 32.1 °F 35.1 °F 97% 29.50 in 10.0 mi South 4.6 mph - N/A   Overcast
3:53 AM 36.0 °F 32.1 °F 35.1 °F 97% 29.50 in 5.0 mi SSW 4.6 mph - 0.00 in   Overcast
4:07 AM 35.6 °F 31.7 °F 33.8 °F 93% 29.50 in 1.8 mi SSE 4.6 mph - N/A   Overcast
4:22 AM 35.6 °F 32.8 °F 35.6 °F 100% 29.50 in 3.0 mi SE 3.5 mph - N/A   Overcast
4:31 AM 35.6 °F 32.8 °F 33.8 °F 93% 29.50 in 1.8 mi South 3.5 mph - N/A   Overcast
4:42 AM 33.8 °F 30.8 °F 33.8 °F 100% 29.50 in 0.5 mi South 3.5 mph - N/A Fog Fog
4:53 AM 35.1 °F 31.0 °F 34.0 °F 96% 29.50 in 0.8 mi SSE 4.6 mph - N/A   Overcast
5:22 AM 33.8 °F 30.8 °F 33.8 °F 100% 29.49 in 1.0 mi ESE 3.5 mph - N/A   Overcast
5:33 AM 33.8 °F - 33.8 °F 100% 29.49 in 0.8 mi Calm Calm - N/A   Overcast
5:53 AM 35.1 °F 31.0 °F 35.1 °F 100% 29.50 in 0.5 mi SSE 4.6 mph - N/A Fog Fog
6:44 AM 35.6 °F 32.8 °F 33.8 °F 93% 29.49 in 2.0 mi SSE 3.5 mph - N/A   Overcast
6:53 AM 35.1 °F 31.0 °F 34.0 °F 96% 29.50 in 3.0 mi SE 4.6 mph - N/A   Overcast
7:01 AM 35.6 °F 32.8 °F 33.8 °F 93% 29.49 in 2.5 mi SE 3.5 mph - N/A   Overcast
7:18 AM 35.6 °F 31.7 °F 33.8 °F 93% 29.49 in 1.5 mi ESE 4.6 mph - N/A   Overcast
7:27 AM 33.8 °F 29.6 °F 33.8 °F 100% 29.49 in 2.0 mi ESE 4.6 mph - N/A   Overcast
7:48 AM 35.6 °F 31.7 °F 33.8 °F 93% 29.49 in 6.0 mi East 4.6 mph - N/A   Overcast
7:53 AM 34.0 °F - 34.0 °F 100% 29.49 in 6.0 mi Calm Calm - N/A   Overcast
8:53 AM 34.0 °F 29.8 °F 34.0 °F 100% 29.48 in 10.0 mi East 4.6 mph - N/A   Overcast
9:53 AM 35.1 °F 32.2 °F 34.0 °F 96% 29.48 in 10.0 mi East 3.5 mph - N/A   Overcast
10:53 AM 35.1 °F 31.0 °F 34.0 °F 96% 29.48 in 10.0 mi ENE 4.6 mph - N/A   Overcast
11:53 AM 36.0 °F - 35.1 °F 97% 29.48 in 10.0 mi Calm Calm - N/A   Overcast
12:53 PM 37.0 °F 32.4 °F 35.1 °F 93% 29.47 in 10.0 mi NE 5.8 mph - N/A   Overcast
1:53 PM 37.9 °F 32.1 °F 35.1 °F 89% 29.45 in 10.0 mi ENE 8.1 mph - N/A   Mostly Cloudy
2:53 PM 39.9 °F 34.5 °F 36.0 °F 86% 29.42 in 10.0 mi NE 8.1 mph - N/A   Scattered Clouds
3:53 PM 41.0 °F 34.3 °F 34.0 °F 76% 29.40 in 10.0 mi NNE 11.5 mph - N/A   Partly Cloudy
4:53 PM 41.0 °F 34.7 °F 33.1 °F 73% 29.37 in 10.0 mi NE 10.4 mph - N/A   Partly Cloudy
5:53 PM 39.0 °F 34.0 °F 34.0 °F 82% 29.36 in 10.0 mi NE 6.9 mph - N/A   Partly Cloudy
6:53 PM 35.1 °F 28.6 °F 32.0 °F 89% 29.35 in 10.0 mi NE 8.1 mph - N/A   Clear
7:53 PM 33.1 °F 26.1 °F 30.9 °F 92% 29.34 in 10.0 mi NE 8.1 mph - N/A   Clear
8:53 PM 30.9 °F 24.3 °F 30.0 °F 96% 29.33 in 10.0 mi NNE 6.9 mph - N/A   Clear
9:53 PM 30.0 °F 23.2 °F 28.9 °F 96% 29.31 in 10.0 mi NNE 6.9 mph - N/A   Clear
10:53 PM 30.0 °F 23.2 °F 28.9 °F 96% 29.29 in 10.0 mi North 6.9 mph - N/A   Clear
11:53 PM 30.0 °F 21.7 °F 28.9 °F 96% 29.29 in 10.0 mi NNE 9.2 mph - N/A   Clear